Wind_Gust
16 16 15 13 14 15 15 14 14 15 15 13 13 12 12 12 14 15 14 12 12 11 11 11 10 12 13 13 13 13 13 14 13 11 10 11 11 12 11 11 11 11 13 11 11 11 12 14 13 10 9 9 7 8 9 11 9 10 9 11 13 13 12
13 17 19 17 16 14 17 14 14 14 14 12 12 12 11 13 15 15 13 12 12 12 12 12 13 15 15 14 13 14 13 14 13 11 11 13 12 12 10 12 12 13 12 13 12 11 14 11 13 12 12 10 6 6 6 9 11 9 9 8 10 11 12
19 20 18 17 16 15 18 17 16 16 15 13 11 11 12 15 14 14 15 15 14 14 12 13 15 15 14 15 14 13 13 13 13 14 14 14 13 14 14 12 13 11 11 13 13 14 10 11 10 9 9 11 11 11 6 8 9 11 8 9 9 11 13
19 19 19 18 19 18 19 17 15 14 13 12 11 12 14 14 13 13 14 13 12 10 12 13 13 14 13 13 14 14 15 15 15 15 15 15 15 16 15 15 14 15 14 14 13 13 11 10 10 6 6 6 8 12 9 7 10 9 10 7 11 9 12
20 20 21 22 21 20 19 19 17 16 14 12 11 13 12 12 12 12 13 12 11 11 13 13 12 13 12 12 13 13 15 15 15 15 15 16 14 15 14 14 15 14 14 14 13 12 13 11 12 9 10 12 7 12 9 10 17 8 14 12 13 12 15
19 19 20 20 20 22 22 19 18 17 15 13 11 13 11 11 11 11 12 11 12 13 14 14 13 14 13 14 15 16 17 16 17 16 17 16 15 14 14 14 14 14 14 12 12 13 13 11 14 13 14 10 12 8 11 9 13 12 15 13 14 16 18
19 18 19 21 18 16 18 18 16 15 14 12 12 13 12 12 11 12 12 13 14 15 15 14 13 13 14 16 15 16 16 16 16 16 16 15 14 14 14 14 14 14 13 13 13 14 15 16 15 14 16 13 8 11 8 12 13 15 16 16 14 16 18
19 22 20 19 17 19 18 17 13 13 13 13 13 14 13 11 13 14 13 14 15 15 14 13 14 14 14 15 16 16 16 16 16 16 16 15 17 16 14 13 13 13 13 14 15 15 15 15 14 15 16 15 10 9 10 13 14 15 20 17 16 18 19
17 18 19 20 16 20 19 16 14 12 13 10 11 13 13 14 14 15 14 15 15 14 13 13 13 14 14 15 16 16 17 16 16 15 16 16 16 13 12 12 13 14 14 14 14 14 13 13 13 14 15 15 16 12 11 10 13 16 17 19 16 17 20
17 19 22 23 21 17 15 13 13 13 12 12 13 13 15 14 15 14 15 16 15 13 14 14 15 15 15 15 16 16 16 15 14 16 15 15 13 12 12 12 13 13 14 13 12 12 12 12 12 12 14 15 15 13 14 13 13 17 18 20 20 19 20
20 20 23 26 22 18 15 14 13 13 12 13 14 16 16 17 16 15 16 16 14 14 15 15 15 16 15 16 16 16 16 14 15 14 13 13 12 11 12 12 12 13 12 11 12 11 11 10 11 12 12 13 14 14 14 14 13 15 18 17 20 24 21
19 22 24 24 24 22 20 18 17 16 16 16 17 17 19 18 17 16 16 16 15 15 15 15 15 15 15 16 16 16 14 14 15 15 13 12 12 12 12 12 10 11 9 10 9 10 10 11 10 10 10 11 13 12 13 13 14 13 16 18 19 20 22
22 23 25 25 23 21 21 19 18 17 16 17 17 17 18 18 18 17 17 17 16 16 16 15 16 16 15 15 15 15 15 15 15 15 13 12 12 12 11 11 10 9 7 8 9 7 7 8 9 10 10 11 11 12 12 13 13 15 15 17 19 19 20
23 24 23 23 22 21 19 18 17 16 17 16 17 18 18 18 18 17 18 17 17 16 16 16 16 15 15 15 15 15 15 16 15 14 14 13 12 12 12 13 12 11 9 8 7 8 8 7 7 8 10 10 12 12 13 13 14 16 15 15 17 20 18
26 25 24 22 20 21 20 18 17 16 15 17 17 19 19 18 17 18 18 18 17 17 17 17 16 15 16 16 15 14 14 15 15 14 12 13 11 11 10 12 13 12 11 11 10 11 11 11 12 11 11 12 13 13 12 15 14 16 18 18 18 17 18
25 24 24 21 19 21 19 18 17 16 18 18 18 18 19 19 19 18 18 18 18 18 17 17 15 16 16 16 16 14 14 14 14 14 14 14 14 12 11 11 11 10 8 9 9 9 9 11 12 13 11 11 11 12 12 12 14 16 18 19 18 20 19
25 26 22 21 20 18 19 17 16 18 19 18 21 18 19 19 19 18 18 18 18 18 18 16 17 17 17 17 16 16 16 15 14 13 13 13 13 12 12 12 11 10 9 10 9 9 9 8 9 12 11 10 10 12 11 11 12 14 17 20 18 21 21
27 25 22 22 20 19 19 18 17 19 19 19 19 20 20 19 18 19 18 19 19 18 18 18 18 17 16 15 16 16 16 14 13 13 11 12 9 11 11 11 11 10 10 9 9 10 11 10 12 12 12 13 13 12 13 12 13 13 15 17 18 17 18
27 24 22 21 20 19 19 18 19 20 19 20 20 19 20 20 19 19 19 19 19 18 18 18 18 18 18 16 16 15 14 14 13 14 13 12 12 11 11 11 11 11 11 10 10 10 10 10 11 12 12 13 14 13 13 12 12 13 14 16 16 19 17
27 24 23 21 19 19 19 18 18 20 19 20 20 20 20 19 18 19 19 19 19 18 18 18 18 17 18 17 16 16 15 14 14 13 12 13 12 11 11 12 12 12 12 11 11 11 11 10 9 10 11 12 13 13 14 13 15 14 14 15 15 16 19
26 23 22 21 19 19 19 18 17 17 19 20 20 21 21 20 19 18 19 18 19 18 17 17 18 18 18 17 16 16 16 14 14 12 12 12 12 11 12 12 13 14 13 13 12 12 12 12 11 10 12 12 13 13 14 14 14 15 15 15 16 18 18
23 22 23 21 19 17 18 17 17 18 18 19 19 20 20 20 20 20 19 19 19 18 18 16 18 17 18 18 17 16 16 15 14 14 13 13 12 12 12 13 14 14 13 11 10 8 7 7 12 11 12 13 14 13 14 14 15 15 16 15 16 17 19
25 22 21 21 19 18 17 17 17 18 19 19 19 20 20 20 20 20 21 20 19 18 17 14 11 14 12 18 17 16 15 15 14 14 14 13 12 13 13 13 13 13 11 10 8 6 5 4 4 8 10 11 13 14 14 14 15 15 16 16 17 19 20
25 23 20 20 19 20 19 16 16 18 19 19 19 20 20 21 20 20 20 20 20 18 17 16 14 13 15 14 15 15 15 15 13 13 13 13 13 13 14 15 13 13 12 10 12 10 9 8 8 7 6 6 7 10 13 14 14 14 16 16 16 18 19
24 22 21 22 22 21 19 18 18 18 19 19 19 19 19 20 19 19 19 20 18 17 15 13 16 15 15 14 12 14 14 14 13 14 14 14 14 12 13 13 10 10 11 12 12 17 13 12 12 11 10 9 9 8 7 10 12 14 15 16 16 16 18
24 23 22 22 21 21 20 20 19 21 21 19 18 20 20 20 19 19 19 19 18 17 17 13 16 16 14 13 11 11 15 14 15 13 13 14 13 13 13 12 11 11 12 9 11 10 14 16 13 14 12 12 11 11 10 11 10 12 13 15 14 17 17
25 24 23 23 21 23 22 21 21 21 21 20 20 19 19 19 19 19 19 18 18 17 19 14 16 14 13 11 9 8 10 14 12 12 12 11 11 12 12 13 13 12 11 8 9 8 9 9 10 14 15 16 16 16 13 13 14 15 15 15 15 16 16
26 25 25 24 22 24 22 22 22 22 23 22 21 21 21 20 19 18 18 18 16 17 17 15 16 15 13 11 7 5 10 12 12 12 12 11 12 11 9 10 10 10 10 9 11 9 11 10 11 9 8 12 15 14 16 15 13 12 11 12 13 13 14
26 25 25 25 26 25 23 24 25 23 22 22 20 20 20 19 19 18 18 18 17 17 14 14 15 15 13 10 6 11 11 13 12 13 13 12 12 13 12 11 9 10 10 10 7 4 6 12 14 13 11 7 7 7 11 9 8 10 13 12 12 14 15
28 28 29 29 28 26 25 25 23 23 23 22 21 21 20 20 19 19 18 18 17 16 16 14 15 16 14 11 6 13 13 15 14 14 14 13 14 12 13 11 9 12 11 11 7 5 5 7 14 13 9 7 6 7 9 8 12 13 13 15 18 20 21
27 28 28 28 27 26 26 24 24 24 24 22 22 21 20 21 21 19 19 19 19 17 20 17 16 15 14 12 9 15 15 15 14 14 14 13 13 13 11 11 11 10 13 12 6 4 6 11 13 12 7 7 7 8 10 13 14 10 13 18 20 21 21
28 27 26 27 26 26 26 26 24 23 22 21 21 21 21 21 21 20 20 19 13 18 21 19 17 16 15 13 15 18 17 16 15 15 16 15 13 14 13 10 10 11 11 10 6 4 5 9 12 11 8 7 9 10 12 16 15 16 17 16 15 15 14
26 25 25 26 24 23 23 21 23 22 23 23 22 21 22 21 21 20 20 20 21 20 21 23 21 17 17 15 15 19 18 15 16 16 15 17 15 14 15 14 11 10 10 8 5 4 6 5 10 11 10 9 10 10 14 16 15 17 18 18 16 16 14
23 22 21 25 21 20 21 21 22 20 20 20 20 20 21 19 20 19 20 20 20 20 20 24 22 18 17 16 16 16 20 18 16 17 16 16 17 16 17 18 16 11 10 9 7 6 7 8 5 12 9 8 9 10 10 16 17 13 19 16 15 14 16
22 22 21 22 21 20 19 20 20 20 19 18 20 20 20 19 21 20 20 21 19 21 18 21 22 20 18 18 16 17 19 19 14 14 17 16 17 16 17 19 19 15 13 11 8 7 7 8 9 12 10 4 6 7 13 16 19 20 16 15 16 16 17
21 20 20 21 21 20 19 19 18 18 18 18 20 20 21 20 20 21 20 22 20 21 20 22 21 21 18 17 19 16 17 17 12 18 17 16 15 15 16 16 18 17 14 13 10 8 7 8 8 11 8 8 8 10 10 17 19 18 15 15 15 16 16
19 19 21 21 20 20 20 19 19 19 18 18 19 20 22 21 21 22 22 22 20 21 21 20 19 22 20 18 16 17 13 12 12 14 18 18 17 18 16 19 18 19 14 12 11 9 9 7 13 10 10 12 12 10 16 19 19 15 14 14 15 15 16
Wind_Speed
6 6 5 6 6 6 7 7 5 5 5 4 3 5 5 5 4 3 2 3 4 4 4 5 5 4 4 4 4 5 5 5 5 4 3 3 2 2 2 2 3 3 3 4 3 0 2 5 2 2 2 2 3 1 0 1 2 3 2 3 2 2 3
6 6 6 6 6 6 8 7 5 5 5 4 5 5 4 4 3 2 2 5 5 5 5 5 5 5 5 4 4 5 5 5 5 4 5 5 5 4 2 2 2 3 4 4 5 3 4 1 5 4 2 0 1 1 1 0 1 5 5 2 2 0 3
6 7 7 7 7 6 7 6 6 6 5 4 4 4 4 4 4 5 5 6 6 6 5 6 6 6 4 5 5 5 5 6 5 5 5 5 5 5 5 5 5 4 4 5 6 7 3 4 2 3 4 6 3 2 3 2 4 6 3 2 1 1 1
10 9 8 8 7 7 7 7 6 5 4 5 4 4 4 5 5 5 4 4 4 4 5 5 5 5 4 5 5 5 5 5 4 5 5 5 5 5 6 6 6 7 5 5 5 5 4 3 5 1 1 3 2 4 3 3 4 4 1 2 0 1 3
10 8 9 10 9 9 9 7 6 6 5 5 4 3 3 4 5 5 5 4 5 4 5 5 5 4 4 4 5 5 5 5 5 5 4 5 5 5 5 5 6 6 6 6 5 5 5 4 4 5 2 2 1 5 3 5 6 1 5 3 2 5 4
9 9 10 10 9 8 8 9 7 7 6 5 4 4 4 5 5 5 4 4 4 5 5 6 5 5 5 5 5 6 6 6 5 5 6 5 5 5 6 6 7 6 6 5 6 5 5 5 6 5 6 5 1 2 4 2 1 4 5 4 3 5 4
9 9 9 9 9 8 8 8 7 7 7 6 5 5 5 6 5 6 5 5 6 5 5 5 5 4 5 5 5 5 6 5 5 6 6 6 6 7 6 6 5 6 6 6 5 5 6 5 5 5 5 6 2 3 2 3 4 4 3 4 3 5 4
8 8 8 7 8 9 7 8 7 7 7 6 6 5 5 5 7 7 6 6 5 5 4 5 5 5 5 6 5 6 5 5 6 6 6 6 7 7 6 6 7 6 6 5 5 5 4 4 4 4 5 6 5 4 4 5 5 5 4 3 4 5 4
8 8 6 7 7 8 8 8 8 7 6 6 6 4 6 7 7 7 5 5 5 5 4 4 5 5 5 5 5 5 6 4 5 6 5 6 6 5 6 6 7 6 5 5 3 4 4 4 4 4 4 5 5 4 5 3 4 4 6 5 4 5 5
9 9 8 10 9 8 7 7 7 6 3 3 6 6 7 8 7 6 5 5 4 4 4 5 6 5 5 4 5 5 6 5 6 6 5 5 4 5 6 6 5 5 4 3 4 5 4 3 3 3 5 6 4 3 3 4 3 3 4 5 4 5 6
9 10 9 11 10 8 8 8 7 7 4 5 7 6 8 8 8 6 4 4 4 4 5 5 5 5 5 5 5 5 5 4 4 5 5 5 5 5 6 5 5 5 3 3 3 3 3 3 2 3 3 4 5 4 3 3 3 3 3 3 3 5 6
10 10 10 10 10 9 9 8 7 6 5 6 8 8 7 7 5 5 4 4 4 5 5 5 5 4 5 5 5 5 4 4 4 5 3 3 4 5 5 5 3 3 3 3 2 2 2 3 4 2 2 4 5 3 3 3 3 2 3 4 3 5 6
11 11 11 11 9 9 10 10 9 7 6 5 7 7 7 6 6 5 5 5 5 5 6 5 5 5 4 4 4 4 4 4 5 4 4 3 4 5 5 5 4 2 0 2 1 0 2 1 1 2 2 3 3 3 3 3 3 4 4 4 5 5 7
10 11 12 11 10 10 9 9 8 7 6 6 7 7 7 7 7 6 6 6 6 5 5 5 4 4 4 4 4 4 4 5 6 4 4 4 4 5 5 4 3 2 2 2 1 1 0 1 3 2 3 3 5 3 3 3 3 4 3 3 4 5 5
10 10 11 11 11 11 9 9 8 8 7 8 7 8 8 7 6 7 7 7 7 6 6 6 5 4 5 5 4 3 4 5 5 4 3 4 5 4 4 4 3 3 2 3 4 4 4 4 4 3 3 3 4 3 3 3 3 3 5 4 5 5 4
11 12 13 10 11 11 10 9 8 8 8 8 7 7 8 7 7 7 7 7 7 6 6 6 4 5 5 4 4 4 5 4 4 4 4 5 5 4 3 3 2 1 0 2 3 3 3 3 4 4 4 3 3 3 3 3 2 3 4 5 4 5 4
13 12 10 9 11 11 11 9 8 8 8 7 7 6 7 8 7 7 7 7 7 7 6 5 6 6 6 5 5 5 5 4 4 4 4 5 5 3 3 3 2 1 2 3 2 2 3 2 4 4 4 4 3 4 3 3 3 2 3 5 4 5 4
12 11 10 10 11 11 10 8 6 7 7 7 8 7 7 7 7 7 7 8 8 7 7 6 7 6 5 4 5 5 5 4 4 4 4 4 5 3 3 2 2 2 2 3 3 4 2 3 4 4 4 4 4 4 3 4 4 3 3 4 4 3 4
12 11 12 12 12 11 10 9 7 8 8 8 8 8 8 7 7 8 8 8 7 7 7 7 7 7 6 5 5 4 4 4 4 4 4 4 4 3 3 3 2 3 3 3 3 3 3 3 3 4 4 4 4 4 4 4 4 4 4 4 4 4 4
11 11 12 12 10 10 8 7 6 7 7 8 8 8 8 7 6 7 8 8 8 7 7 7 7 6 7 6 5 5 4 4 4 4 3 4 4 3 4 3 4 5 5 5 4 3 4 4 4 4 4 4 3 4 4 4 5 4 4 5 4 4 4
11 10 11 11 11 9 8 7 7 8 7 8 8 9 9 8 7 7 7 7 7 7 6 6 7 6 6 5 5 5 4 4 4 3 4 4 4 4 4 5 6 5 5 4 3 3 3 3 4 4 4 3 4 4 4 5 5 5 5 5 3 4 4
10 10 12 12 11 9 8 6 4 8 8 7 7 8 8 8 8 7 8 7 8 7 6 6 6 6 6 7 6 5 5 4 4 4 4 4 4 5 6 6 5 4 4 5 5 4 4 3 2 3 3 3 4 4 4 4 5 5 5 5 5 4 5
10 11 12 12 11 9 8 7 7 7 8 8 7 7 8 8 7 8 8 8 7 5 5 3 6 12 9 6 6 5 5 4 4 3 4 4 4 5 7 6 5 9 7 5 4 3 3 2 1 1 1 2 2 3 3 3 4 4 5 5 5 5 5
11 12 11 11 10 10 9 8 8 8 7 7 7 7 7 8 7 8 8 8 7 6 5 5 11 12 13 12 7 5 4 4 3 3 3 4 4 6 6 6 4 6 5 5 3 4 3 5 5 4 3 2 2 1 1 2 3 3 3 4 5 5 4
12 11 11 11 11 9 8 8 8 8 7 7 6 6 7 7 7 7 7 8 7 5 6 9 14 13 12 11 8 7 6 5 3 3 3 3 4 5 6 6 4 4 4 5 4 4 6 7 8 7 7 7 6 5 5 1 0 2 2 3 4 4 4
12 11 12 12 10 9 9 9 8 8 7 6 6 7 7 7 7 7 7 8 8 8 7 10 14 13 12 11 9 8 7 5 5 4 3 4 4 5 5 5 4 4 3 7 5 5 6 5 9 10 8 7 7 8 8 8 6 4 2 3 3 5 4
13 13 13 12 10 10 9 9 8 7 7 6 6 7 7 7 7 7 8 8 7 8 8 11 14 12 12 9 8 4 3 5 4 5 4 4 4 4 4 4 4 4 4 4 2 3 2 2 4 6 5 5 6 8 10 10 10 10 7 4 4 5 5
13 13 13 12 10 10 9 8 8 7 7 7 6 7 7 7 7 7 7 7 7 9 7 12 14 13 11 9 7 3 1 5 4 4 3 3 4 4 5 5 4 4 3 3 2 2 2 3 4 3 4 7 8 7 6 6 6 6 5 7 7 6 7
12 12 13 12 11 11 10 9 7 7 7 7 6 5 5 6 7 7 7 9 9 8 6 11 13 13 12 9 5 2 1 5 3 4 3 3 2 2 1 1 2 4 4 4 3 3 2 2 3 4 6 3 3 2 6 7 7 5 4 3 4 5 7
13 13 13 13 12 11 9 8 6 6 7 7 7 7 6 6 6 7 8 9 8 8 7 8 12 14 12 10 4 1 2 4 3 4 3 3 3 3 3 2 1 3 5 3 5 5 3 2 2 5 5 3 3 0 3 1 4 8 9 10 12 15 16
13 13 12 12 12 10 8 7 6 6 7 7 7 7 6 6 6 6 7 7 7 8 8 8 11 13 12 10 6 3 2 4 5 5 4 4 4 4 4 8 6 2 5 4 5 4 3 2 2 6 4 3 2 1 3 3 4 4 8 11 13 15 16
12 12 12 11 10 10 8 8 7 6 5 6 7 6 6 6 6 5 6 7 10 10 8 9 11 13 12 10 7 3 3 4 5 5 5 5 4 4 3 5 7 7 5 5 5 4 4 2 2 6 3 3 2 2 3 4 4 6 6 6 7 8 7
12 12 12 11 10 9 7 7 9 8 6 6 6 7 6 6 7 6 7 7 8 8 9 9 10 13 11 11 10 5 3 4 4 6 4 6 5 4 4 3 6 9 9 7 4 3 2 3 2 4 5 3 3 2 3 4 4 4 6 7 8 9 7
11 11 10 11 11 10 7 8 10 8 6 6 6 4 6 4 5 5 6 6 8 7 9 10 11 12 12 11 11 8 3 2 2 3 6 5 5 5 5 5 4 8 9 8 5 3 2 2 1 3 5 2 1 1 3 3 6 9 6 8 9 6 4
12 10 9 9 6 8 7 8 8 9 5 6 7 7 7 6 7 7 7 7 8 7 11 16 11 13 13 12 11 11 5 3 2 5 3 3 6 4 7 7 6 9 11 9 6 5 3 4 5 4 3 3 5 4 3 4 5 5 6 8 7 5 4
9 8 7 7 7 9 8 8 7 7 6 5 7 8 9 7 7 7 7 7 6 7 9 11 17 13 14 13 13 10 10 5 3 4 3 5 5 3 7 8 9 14 12 11 8 7 4 5 4 5 7 7 7 7 5 5 5 5 6 8 6 4 5
8 8 9 9 9 9 8 7 7 7 8 6 7 8 9 7 7 7 7 8 7 7 8 9 14 18 14 15 13 12 10 8 4 0 2 3 4 8 5 7 10 16 12 10 9 8 7 5 5 9 9 11 11 8 5 5 6 6 7 6 5 4 5
Wind_Direction
150 144 118 109 99 116 114 109 109 123 126 115 100 90 82 75 78 83 79 99 116 98 77 62 50 53 70 58 40 51 38 25 24 58 82 70 95 113 48 62 80 73 57 46 50 169 134 147 176 112 114 100 94 94 277 38 332 308 248 234 266 291 291
134 128 122 118 130 133 126 133 143 117 93 86 83 84 87 96 97 99 80 67 71 90 95 85 71 68 66 64 65 58 55 40 34 44 65 50 38 25 44 39 54 70 62 44 22 15 59 118 157 175 181 58 140 120 295 201 233 257 241 217 260 245 272
131 132 136 130 122 119 119 117 102 109 121 110 101 96 100 102 99 87 84 89 90 89 99 97 90 79 73 77 74 82 76 69 48 52 60 52 48 39 43 44 41 34 44 33 23 13 22 33 69 110 152 175 171 203 244 254 246 248 216 174 194 249 306
135 137 135 132 122 129 139 137 137 125 118 106 94 93 101 104 96 89 95 97 92 101 98 105 102 98 95 86 78 72 73 76 74 71 66 65 56 57 53 50 58 48 51 49 27 14 22 22 359 45 54 358 142 143 240 242 263 272 86 161 217 126 35
139 145 145 144 151 151 147 138 127 121 113 110 103 95 91 99 100 105 98 95 95 91 91 95 100 100 90 79 70 68 66 61 60 57 62 69 67 66 60 58 61 57 47 48 24 34 26 10 15 337 41 347 1 146 182 199 240 301 18 47 7 59 30
148 154 147 153 159 149 147 145 144 131 128 128 133 141 147 130 120 108 103 103 90 73 76 78 76 76 75 75 75 76 75 74 68 71 67 62 69 70 69 58 63 54 55 38 42 36 15 24 29 13 349 329 331 273 167 159 115 77 15 11 16 53 29
150 150 150 159 155 148 146 145 139 137 138 135 144 152 157 144 120 95 88 82 77 80 83 87 89 95 95 89 86 83 78 70 71 70 69 66 61 60 57 68 59 63 51 38 34 38 37 32 30 19 349 329 287 0 22 70 70 48 18 351 10 49 11
149 147 154 151 141 133 132 130 132 139 141 148 139 165 167 116 101 100 92 82 87 95 95 90 89 88 89 87 84 85 78 73 77 75 72 70 67 66 68 65 64 50 49 55 37 30 44 44 47 14 14 5 341 43 3 58 22 51 21 343 358 33 359
142 137 120 118 116 128 138 138 134 137 144 140 146 141 103 100 95 94 92 96 100 102 110 110 101 90 85 90 96 100 99 101 96 86 81 70 69 68 70 67 65 60 49 38 42 41 27 39 40 29 38 29 28 358 354 33 52 16 21 358 349 11 348
136 132 128 127 122 128 130 123 126 126 125 136 128 108 97 91 94 90 101 112 117 113 109 109 104 102 101 99 92 82 82 78 75 80 80 79 75 66 62 62 67 72 62 50 42 27 12 25 35 40 61 52 8 29 4 343 44 35 6 358 355 337 343
129 128 133 134 133 125 124 117 123 120 112 98 99 92 92 94 102 115 127 127 121 117 110 106 105 100 102 97 92 92 96 95 82 64 63 66 68 70 74 77 73 67 52 67 58 31 13 357 31 54 52 71 47 42 350 352 317 59 351 352 353 327 339
130 135 135 136 138 132 126 124 121 116 110 114 111 111 115 116 125 139 135 123 126 121 108 100 107 107 97 98 102 103 97 95 95 93 90 91 87 88 92 88 83 77 74 56 54 60 49 19 355 56 65 92 74 45 2 325 329 349 31 341 328 327 334
139 139 139 143 141 136 133 132 129 131 136 131 119 119 128 143 147 142 136 130 123 122 119 114 108 114 113 107 111 103 103 106 103 102 105 98 95 84 73 61 44 43 16 120 98 246 144 121 31 11 27 75 75 52 10 352 338 318 341 352 322 322 330
142 145 144 145 140 139 138 132 137 139 136 127 128 141 151 151 148 144 139 140 134 130 127 127 126 120 122 114 104 124 129 113 104 102 108 104 97 83 82 92 87 37 6 22 204 175 307 174 155 121 34 53 71 39 30 2 355 319 313 335 323 320 312
142 144 146 144 142 140 139 135 143 146 142 141 153 153 150 149 146 144 145 143 143 135 137 134 133 127 115 124 134 121 116 112 109 116 107 86 75 76 79 83 70 55 22 29 10 35 5 4 37 33 67 38 67 24 31 13 337 315 321 326 326 310 329
149 151 150 143 140 140 137 143 152 152 149 154 158 154 146 147 150 149 146 144 144 145 139 138 131 118 120 134 133 124 113 116 116 107 109 105 93 93 99 107 106 91 136 96 60 18 360 14 33 26 9 22 46 49 11 353 311 328 324 314 317 322 337
154 147 136 137 140 141 144 153 159 156 151 157 147 138 144 156 155 152 149 147 147 145 140 130 124 127 139 136 136 124 112 119 134 135 113 108 114 110 96 102 109 112 61 38 38 80 0 348 73 41 5 1 19 35 355 328 333 314 305 315 318 318 338
147 141 139 140 140 141 145 147 154 153 151 155 142 144 155 159 154 153 151 151 148 144 141 136 134 140 133 141 129 128 139 135 129 128 114 108 116 114 128 111 106 75 57 61 24 18 15 14 44 58 22 356 360 21 341 318 312 322 319 313 311 314 349
145 144 144 143 144 144 145 151 166 160 162 144 144 155 163 160 160 153 156 151 145 142 144 143 143 140 145 137 133 134 129 128 111 98 107 109 108 107 106 105 83 71 59 60 37 20 356 18 28 42 29 355 3 357 331 322 332 326 327 318 311 332 350
144 142 147 146 144 146 148 158 167 145 143 144 154 164 162 156 152 156 156 148 147 148 144 146 143 146 145 143 138 123 118 111 110 123 128 113 107 109 93 72 61 50 53 48 48 20 358 4 20 53 21 6 359 347 338 337 327 336 347 336 327 5 340
143 141 143 143 143 144 151 165 168 139 146 153 163 170 161 156 153 161 148 147 148 143 143 142 147 146 144 136 126 125 127 129 136 125 118 127 122 102 94 78 61 62 65 47 41 33 29 16 350 48 12 14 355 355 348 339 341 352 349 335 335 358 340
142 142 146 144 141 144 149 154 149 135 150 159 169 165 156 153 162 155 145 147 144 144 147 148 150 153 139 134 135 135 135 134 135 135 126 121 127 116 94 87 87 95 102 113 101 92 73 42 13 30 21 13 3 9 351 348 346 354 346 336 341 349 340
143 142 145 144 143 145 149 150 150 152 160 164 168 161 152 157 162 148 152 144 143 145 150 138 147 147 133 141 142 135 132 136 144 140 142 133 124 115 105 104 124 127 134 148 157 136 116 71 32 26 3 15 14 5 2 352 353 348 348 338 338 339 341
140 141 146 144 144 147 152 152 154 161 162 166 165 158 150 161 160 152 153 145 143 151 109 109 107 123 139 141 136 128 131 136 142 143 149 141 126 117 123 130 146 157 169 192 193 193 225 224 220 233 235 243 281 317 346 359 352 349 360 334 321 332 333
143 141 143 148 149 150 152 153 159 164 161 163 161 149 158 166 153 151 149 143 148 126 113 114 104 100 92 88 97 128 134 145 146 158 151 158 138 136 143 156 167 169 191 203 205 197 218 236 240 234 230 229 233 253 249 247 307 338 352 323 317 317 326
152 144 148 150 150 150 156 159 161 162 160 163 154 157 166 164 152 154 147 149 147 122 131 122 114 110 102 101 100 124 150 160 150 152 168 165 166 149 156 165 157 181 182 192 216 189 193 222 238 236 232 234 240 229 243 254 247 232 275 296 300 303 304
153 148 150 153 155 157 161 164 165 166 155 160 161 164 168 163 155 155 154 151 143 130 136 137 127 120 108 93 87 77 160 149 166 169 166 176 158 154 158 162 168 181 157 202 68 26 349 257 225 223 217 224 226 232 233 239 243 249 237 237 260 266 281
145 146 153 158 163 164 166 168 177 160 158 166 166 172 169 166 159 156 153 146 117 135 145 145 135 132 123 113 103 95 123 163 188 161 161 133 150 170 170 178 183 175 147 97 73 55 353 338 324 300 227 205 218 220 206 212 229 234 226 219 227 245 267
147 152 156 162 166 168 167 177 183 160 161 166 167 169 171 164 159 160 139 114 131 136 143 151 143 146 138 127 125 145 210 174 142 135 131 144 166 186 180 203 149 137 124 114 117 99 58 337 307 296 285 261 266 200 175 205 200 212 228 237 247 256 258
152 158 161 164 170 168 169 181 177 162 158 162 170 176 175 167 160 163 137 135 135 138 147 171 159 158 147 140 138 173 237 152 148 143 159 170 165 165 189 200 219 153 128 126 136 135 96 24 321 300 279 284 263 341 79 43 290 260 251 246 253 262 266
158 161 164 169 175 168 172 180 170 158 165 167 173 181 171 166 163 151 135 141 143 141 158 175 176 167 154 155 167 181 228 169 163 156 165 176 188 174 107 91 54 359 130 136 143 113 51 14 322 289 282 296 288 56 47 8 336 300 255 246 256 262 267
160 158 163 169 174 172 182 172 158 149 172 175 173 177 174 163 150 143 140 148 145 147 162 174 184 175 164 166 174 206 236 200 161 165 161 173 216 148 130 93 77 68 92 125 128 106 57 33 324 303 319 294 328 46 31 353 320 320 319 319 303 292 285
162 167 167 172 174 182 182 157 149 162 175 180 166 181 165 168 162 164 150 158 162 159 161 171 184 181 173 173 186 201 219 275 170 166 171 166 211 146 139 134 119 115 121 132 117 109 34 81 344 313 319 339 16 345 2 333 298 290 297 289 288 279 275
165 162 173 173 172 174 167 147 151 157 158 165 163 160 146 166 160 156 162 173 172 170 160 168 180 183 183 184 193 201 231 272 323 171 180 158 201 157 163 169 166 148 147 149 146 163 279 300 291 303 304 358 36 283 329 307 300 307 296 292 274 277 314
168 159 158 165 153 135 118 125 136 150 166 167 161 155 163 178 173 174 170 186 173 182 157 166 173 187 189 195 197 201 215 219 90 24 347 198 184 193 171 178 167 168 159 158 165 171 236 281 299 303 296 304 298 323 302 288 289 292 294 282 294 309 324
133 132 144 140 134 132 130 129 126 125 144 161 163 161 180 184 175 176 168 191 173 180 155 167 169 178 192 195 204 203 213 228 318 26 21 350 326 260 191 172 158 160 163 166 172 185 207 247 294 267 281 299 296 301 306 281 282 285 285 280 293 312 315
119 117 122 128 131 124 131 130 140 151 172 176 169 170 185 178 176 179 179 182 179 180 153 168 172 176 184 194 204 208 206 219 264 344 14 339 343 358 327 140 153 155 160 174 176 186 201 221 241 272 283 281 288 298 287 291 278 273 262 282 307 310 306